EA2CW-13 Weather Reports


time (UTC)temp
F
wind
direction
speed
knots
gust
knots
rain 1hr
in
rain 24hr
in
rain mn
in
humidity
%
barometer
mb
20260507055923 55 0.0 0.0 0.00 0.00 0.00 87 1050.7
20260507054347 53 0.0 0.0 0.00 0.00 0.00 87 1050.7
20260507052811 53 0.0 0.0 0.00 0.00 0.00 87 1050.8
20260507051235 53 0.0 0.0 0.00 0.00 0.00 88 1050.5
20260507045659 53 0.0 0.0 0.00 0.00 0.00 88 1050.6
20260507044123 53 0.0 0.0 0.00 0.00 0.00 88 1050.9
20260507042547 53 0.0 0.0 0.00 0.00 0.00 88 1050.9
20260507041011 53 0.0 0.0 0.00 0.00 0.00 88 1050.7
20260507035435 53 0.0 0.0 0.00 0.00 0.00 88 1050.8
20260507033859 53 0.0 0.0 0.00 0.00 0.00 89 1050.8
20260507032323 54 0.0 0.0 0.00 0.00 0.00 89 1050.9
20260507030747 53 0.0 0.0 0.00 0.00 0.00 89 1050.9
20260507025211 54 0.0 0.0 0.00 0.00 0.00 89 1050.9
20260507023635 54 0.0 0.0 0.00 0.00 0.00 90 1051.0
20260507022059 54 0.0 0.0 0.00 0.00 0.00 90 1051.1
20260507020523 54 0.0 0.0 0.00 0.00 0.00 90 1051.1
20260507014947 54 0.0 0.0 0.00 0.00 0.00 91 1051.2
20260507013411 54 0.0 0.0 0.00 0.00 0.00 91 1051.2
20260507011835 54 0.0 0.0 0.00 0.00 0.00 91 1051.3
20260507010259 54 0.0 0.0 0.00 0.00 0.00 92 1051.4
20260507004723 53 0.0 0.0 0.00 0.00 0.00 92 1051.4
20260507003147 53 0.0 0.0 0.00 0.00 0.00 92 1051.5
20260507001611 53 0.0 0.0 0.00 0.00 0.00 92 1051.6
20260507000036 53 0.0 0.0 0.00 0.00 0.00 92 1051.7
20260506234500 54 0.0 0.0 0.00 0.00 0.00 91 1051.8
20260506232924 55 0.0 0.0 0.00 0.00 0.00 90 1051.8
20260506231348 54 0.0 0.0 0.00 0.00 0.00 90 1051.8
20260506225812 55 0.0 0.0 0.00 0.00 0.00 89 1051.7
20260506224236 55 0.0 0.0 0.00 0.00 0.00 88 1051.8
20260506222700 55 0.0 0.0 0.00 0.00 0.00 87 1051.9
20260506221124 56 0.0 0.0 0.00 0.00 0.00 87 1051.8
20260506215548 56 0.0 0.0 0.00 0.00 0.00 86 1051.8
20260506214012 56 0.0 0.0 0.00 0.00 0.00 85 1051.9
20260506212436 57 0.0 0.0 0.00 0.00 0.00 83 1052.0
20260506210900 57 0.0 0.0 0.00 0.00 0.00 83 1052.0
20260506205324 58 0.0 0.0 0.00 0.00 0.00 81 1051.9
20260506203748 58 0.0 0.0 0.00 0.00 0.00 79 1051.8
20260506202212 59 0.0 0.0 0.00 0.00 0.00 77 1051.6
20260506200636 59 0.0 0.0 0.00 0.00 0.00 75 1051.5
20260506195100 60 0.0 0.0 0.00 0.00 0.00 73 1051.3
20260506193524 61 0.0 0.0 0.00 0.00 0.00 70 1051.2
20260506191948 62 0.0 0.0 0.00 0.00 0.00 66 1051.0
20260506190412 64 0.0 0.0 0.00 0.00 0.00 62 1050.9
20260506184836 68 0.0 0.0 0.00 0.00 0.00 57 1050.8
20260506183300 71 0.0 0.0 0.00 0.00 0.00 57 1050.8
20260506181725 72 0.0 0.0 0.00 0.00 0.00 60 1050.8
20260506180148 70 0.0 0.0 0.00 0.00 0.00 66 1050.9
20260506174612 67 0.0 0.0 0.00 0.00 0.00 64 1050.9
20260506173036 67 0.0 0.0 0.00 0.00 0.00 65 1050.9
20260506171500 68 0.0 0.0 0.00 0.00 0.00 64 1051.1
20260506165924 69 0.0 0.0 0.00 0.00 0.00 67 1051.1
20260506164349 72 0.0 0.0 0.00 0.00 0.00 73 1051.0
20260506162813 69 0.0 0.0 0.00 0.00 0.00 76 1051.2
20260506161237 65 0.0 0.0 0.00 0.00 0.00 80 1051.5
20260506155701 65 0.0 0.0 0.00 0.00 0.00 82 1051.5
20260506154125 63 0.0 0.0 0.00 0.00 0.00 84 1051.6
20260506152549 62 0.0 0.0 0.00 0.00 0.00 84 1051.7
20260506151013 60 0.0 0.0 0.00 0.00 0.00 81 1051.9
20260506143901 61 0.0 0.0 0.00 0.00 0.00 75 1051.9
20260506142325 62 0.0 0.0 0.00 0.00 0.00 67 1052.0
20260506140749 63 0.0 0.0 0.00 0.00 0.00 62 1051.9
20260506135213 66 0.0 0.0 0.00 0.00 0.00 53 1051.9
20260506133637 70 0.0 0.0 0.00 0.00 0.00 49 1051.9
20260506132101 69 0.0 0.0 0.00 0.00 0.00 49 1051.8
20260506130525 70 0.0 0.0 0.00 0.00 0.00 50 1051.8
20260506124949 68 0.0 0.0 0.00 0.00 0.00 53 1051.7
20260506123413 68 0.0 0.0 0.00 0.00 0.00 52 1051.5
20260506121837 66 0.0 0.0 0.00 0.00 0.00 53 1051.4
20260506120301 68 0.0 0.0 0.00 0.00 0.00 52 1051.3
20260506114725 70 0.0 0.0 0.00 0.00 0.00 47 1051.4
20260506113149 70 0.0 0.0 0.00 0.00 0.00 47 1051.5
20260506111613 68 0.0 0.0 0.00 0.00 0.00 52 1051.6
20260506110037 69 0.0 0.0 0.00 0.00 0.00 51 1051.5
20260506104501 68 0.0 0.0 0.00 0.00 0.00 52 1051.6
20260506102925 67 0.0 0.0 0.00 0.00 0.00 52 1051.4
20260506101349 68 0.0 0.0 0.00 0.00 0.00 49 1051.3
20260506095814 70 0.0 0.0 0.00 0.00 0.00 50 1051.3
20260506094238 67 0.0 0.0 0.00 0.00 0.00 56 1051.4
20260506092702 64 0.0 0.0 0.00 0.00 0.00 56 1051.4
20260506091126 64 0.0 0.0 0.00 0.00 0.00 56 1051.2
20260506085550 65 0.0 0.0 0.00 0.00 0.00 57 1051.2
20260506084014 62 0.0 0.0 0.00 0.00 0.00 58 1051.1
20260506082438 64 0.0 0.0 0.00 0.00 0.00 57 1051.1
20260506080902 64 0.0 0.0 0.00 0.00 0.00 60 1051.2
20260506072214 61 0.0 0.0 0.00 0.00 0.00 81 1051.1
20260506070638 60 0.0 0.0 0.00 0.00 0.00 84 1051.1
20260506061950 57 0.0 0.0 0.00 0.00 0.00 88 1050.9